Location: La Pernelle
(49.6188°N, 1.2999°W)
Time: 10:35:41
(UTC+00:00)

Cosmos 1954 Rocket - Pass Details

Date: 30 October 2021
Orbit: 751 x 782 km, 74.0° (Epoch: 26 November)

Event Time Altitude Azimuth Distance (km) Brightness Sun altitude
Rises 19:42:50 0° 329° (NNW) 3,247 7.8 -29.0°
Reaches altitude 10° 19:45:24 10° 320° (NW) 2,321 7.1 -29.4°
Maximum altitude 19:50:04 33° 258° (WSW) 1,287 5.6 -30.1°
Enters shadow 19:53:07 18° 207° (SSW) 1,808 6.0 -30.6°
